SCP
0 0 0 0 0 0 0 0 0 0 0 0 0 0 0 0 0 0 0 0 0 0 0 1 0 1 1 0 1 0 0 0 -0 0 0 0 -1 -1 -1 -1 -2 -2 -1 -1
0 0 0 0 0 0 0 0 0 0 0 0 0 0 0 0 0 0 0 0 0 0 0 0 0 0 0 1 1 1 0 -0 0 0 0 0 0 -0 -0 -1 -1 -2 -1 -1
0 0 0 0 0 0 0 0 0 0 0 0 0 0 0 0 0 0 0 0 0 0 0 0 0 1 1 1 1 1 0 1 1 1 0 1 1 1 0 -0 -0 -1 -1 -1
0 0 0 0 0 0 0 0 0 0 0 0 0 0 -0 0 0 0 0 0 0 0 0 0 0 0 1 1 1 1 1 0 0 1 2 2 1 1 1 1 0 0 -0 0
0 0 0 0 0 0 0 0 0 0 0 0 0 -0 -0 -0 0 0 0 0 0 0 0 0 0 0 0 1 1 1 1 1 1 1 1 1 2 1 2 2 2 2 2 1
0 0 0 0 0 0 0 0 0 0 0 0 0 0 -0 -0 -0 0 0 0 0 0 0 0 0 0 0 1 1 1 2 1 1 1 2 2 3 3 3 4 3 2 2 2
0 0 0 0 0 0 0 0 0 0 0 0 0 0 0 0 0 0 0 0 0 0 0 0 0 0 0 0 0 1 1 1 2 2 2 2 3 3 4 4 3 4 4 3
0 0 0 0 0 0 0 0 0 0 0 0 1 0 0 0 0 0 -0 0 0 0 0 0 1 1 1 1 1 1 1 1 2 2 2 1 3 3 3 4 4 4 4 3
0 0 0 0 0 0 0 0 0 0 0 0 0 0 1 0 0 0 -0 0 0 0 1 2 2 2 2 2 2 1 1 1 1 1 1 2 3 3 3 4 3 4 4 4
0 0 0 0 0 0 0 0 0 0 0 0 0 0 0 -0 0 0 0 0 1 1 1 2 5 5 5 4 3 2 2 2 2 2 3 3 3 2 3 3 4 3 5 6
0 0 0 0 0 0 0 0 0 0 0 0 0 0 0 -0 0 0 0 1 1 1 1 2 2 2 2 3 3 5 4 3 3 2 2 2 2 2 2 3 2 4 4 6
0 0 0 0 0 0 0 0 0 0 0 -0 0 0 0 0 0 1 1 2 3 3 3 2 2 3 3 3 4 3 2 1 2 2 1 1 2 2 1 2 1 1 0 4
0 0 0 0 0 0 0 0 0 0 0 0 0 -0 0 0 0 0 1 1 2 2 4 3 1 1 1 3 2 2 2 2 2 1 2 2 2 2 2 2 2 1 1 1
-0 0 0 0 0 0 0 0 0 0 0 0 0 0 0 1 1 1 2 2 2 2 2 2 1 1 1 1 1 1 1 0 1 1 1 1 1 2 2 2 2 2 1 0
0 -0 0 0 0 0 0 0 0 0 0 0 0 1 0 1 0 1 0 0 0 1 1 1 1 1 1 1 1 1 1 1 0 0 0 0 0 0 0 0 0 0 0 0
0 0 0 0 0 0 0 0 -0 0 0 0 0 0 0 0 0 0 0 0 0 0 0 0 1 1 1 1 1 1 1 0 0 1 1 1 1 1 0 0 0 0 0 0
-0 0 0 0 0 0 0 0 0 0 0 0 0 0 0 0 0 0 0 0 0 0 0 0 1 1 0 1 1 1 1 0 0 0 0 0 0 0 0 0 0 0 0 0
-0 0 0 0 -0 -0 0 0 0 0 0 0 0 0 0 0 0 0 0 0 0 0 0 0 0 0 0 1 1 0 0 0 0 0 0 0 0 0 0 0 0 0 0 0
0 0 0 -0 0 0 0 0 0 0 0 0 0 0 0 0 0 0 0 0 0 0 0 0 0 0 0 0 0 0 0 1 0 0 0 0 0 0 0 0 0 0 0 0
-0 0 -0 -0 0 0 0 -0 0 0 0 0 0 0 0 0 0 0 0 0 0 0 0 0 0 0 0 0 0 0 0 0 0 0 0 0 0 0 0 0 0 0 0 0
-0 0 -0 -0 0 0 -0 0 0 0 0 0 0 0 0 0 0 0 0 0 0 0 0 0 0 0 0 0 0 0 0 0 0 0 0 0 0 0 0 0 0 0 0 0
0 0 0 0 0 0 0 0 0 0 0 0 0 0 0 0 0 0 0 0 0 0 0 0 0 0 0 0 0 0 0 0 0 0 0 0 0 0 0 0 0 0 0 0
-0 -0 -0 -0 -0 -0 0 -0 -0 0 0 0 0 0 0 0 0 0 0 0 0 0 0 0 0 0 0 0 0 0 0 0 0 0 0 0 0 0 0 0 0 0 0 0
-0 0 0 -0 0 -0 -0 -0 -0 -0 -0 -0 0 0 0 0 0 0 0 0 0 0 0 0 0 0 0 0 0 0 0 0 0 0 0 0 0 0 0 0 0 0 0 0
-0 -0 -0 -0 -0 -0 -0 -0 -0 -0 -0 -0 -0 -0 -0 0 0 0 0 0 0 0 0 0 0 0 0 0 0 0 0 0 0 0 0 0 0 0 0 0 0 0 0 0
-0 0 0 -0 -0 -0 -0 -0 -0 -0 -0 -0 -0 -0 -0 -0 -0 0 0 0 0 0 0 0 0 0 0 0 0 0 0 0 0 0 0 0 0 0 0 0 0 0 0 0
0 0 0 0 0 0 0 0 0 0 0 0 0 0 0 0 0 0 0 0 0 0 0 0 0 0 0 0 0 0 0 0 0 0 0 0 0 0 0 0 0 0 0 0
Wind_Speed_500mb
31 5 12 36 57 59 59 53 47 37 40 34 14 15 14 19 25 22 12 9 15 26 34 41 44 54 65 66 70 71 84 81 95 96 97 101 104 103 98 96 93 89 87 85
28 20 13 20 23 26 44 54 52 51 44 21 22 14 33 36 37 40 45 44 42 32 33 33 39 46 50 64 69 74 82 94 89 89 88 89 95 100 100 100 98 94 95 95
31 21 20 30 40 38 35 34 33 42 32 34 34 31 39 44 43 44 42 44 39 37 37 37 39 43 46 49 53 72 84 84 89 89 87 87 84 88 92 96 94 97 97 99
12 13 30 21 21 40 46 35 39 36 33 30 30 40 46 48 49 51 50 48 46 46 43 41 39 38 37 39 48 62 81 80 86 88 87 73 79 85 85 88 93 95 100 100
21 24 17 10 6 15 23 34 35 29 19 24 37 49 55 53 51 53 56 54 52 52 50 49 46 42 37 43 47 55 73 69 75 80 76 75 82 83 83 82 85 94 96 99
14 30 28 8 32 5 5 17 13 11 17 17 17 19 24 48 52 50 50 51 51 44 40 40 45 43 42 45 49 60 66 65 67 71 76 79 79 79 81 83 83 74 82 99
26 22 18 16 17 4 22 9 12 8 15 19 19 25 45 50 47 40 36 40 40 41 42 44 39 35 40 44 51 52 51 53 61 65 67 70 70 75 78 80 72 79 84 90
26 32 43 14 18 24 23 23 27 26 27 29 33 36 50 51 56 52 45 39 37 33 32 31 39 37 40 45 40 43 45 48 54 58 57 55 68 69 68 68 73 79 79 81
18 22 27 14 25 29 37 39 36 44 44 44 46 42 45 45 41 39 36 31 22 22 21 19 26 26 30 30 35 37 39 43 45 46 49 57 60 55 58 67 69 70 73 77
33 42 43 38 49 44 33 46 44 45 48 46 54 50 40 34 25 19 13 6 4 7 13 13 17 19 21 25 26 26 28 30 32 36 39 43 45 48 52 57 63 69 69 77
38 42 48 50 50 51 48 39 40 43 45 45 47 41 29 17 14 12 7 6 12 12 12 17 19 22 22 25 26 18 20 22 25 26 33 35 42 45 50 56 59 62 69 70
30 32 40 48 45 29 35 38 41 42 42 39 33 20 16 13 17 14 15 16 19 17 15 17 18 16 16 18 19 18 13 12 16 21 24 29 35 40 53 62 59 69 78 75
45 47 36 40 40 45 47 50 47 43 38 35 30 21 19 18 16 22 27 27 27 27 25 17 16 15 11 7 6 7 8 8 5 9 14 20 25 31 37 42 55 67 82 86
46 46 50 57 51 44 41 44 43 44 42 37 32 29 30 30 32 33 34 31 32 32 31 29 27 22 22 15 14 13 11 11 7 7 5 1 7 15 22 34 45 54 57 74
66 62 64 60 53 49 42 37 34 40 34 26 29 31 32 32 33 36 36 34 37 38 38 36 35 35 27 19 17 17 14 11 11 11 10 11 12 16 18 29 36 41 53 65
47 59 58 52 51 47 44 37 36 35 25 29 33 43 42 41 42 41 40 39 41 42 39 40 38 33 33 33 23 24 24 23 18 8 7 8 13 19 25 15 18 25 25 33
43 41 34 33 39 38 33 38 30 36 27 42 46 50 61 56 45 45 44 44 48 46 46 45 41 32 29 27 29 27 31 31 27 24 19 12 8 10 13 19 15 10 16 19
38 28 21 19 17 21 13 24 39 34 27 45 48 47 42 46 43 46 43 38 42 43 47 46 41 35 33 28 23 24 34 40 39 36 26 21 16 18 15 13 10 8 9 10
44 42 56 55 50 49 56 56 56 58 38 47 57 59 55 51 47 44 47 53 51 49 44 44 36 42 39 29 27 23 26 31 35 35 34 36 35 36 35 30 25 18 12 14
89 79 95 78 81 77 79 71 68 65 53 58 59 63 62 50 45 52 62 65 53 48 47 53 44 41 32 31 35 36 37 34 29 29 30 30 29 33 34 32 30 25 16 6
85 91 86 78 76 82 79 74 69 70 63 66 68 70 70 59 59 58 63 67 59 55 59 61 50 43 38 35 39 42 41 39 37 34 39 41 37 38 38 32 27 26 16 11
79 75 71 65 65 65 59 60 65 63 60 57 55 52 51 59 59 67 62 56 53 58 54 54 50 45 41 41 42 43 40 42 41 42 42 41 41 41 40 41 41 34 18 1
60 60 57 57 61 62 60 56 58 61 58 59 55 53 60 54 48 50 54 53 49 45 43 46 39 40 44 45 40 38 38 37 37 44 43 38 36 35 37 37 36 35 40 40
50 46 44 43 44 49 50 43 46 49 50 52 49 43 43 39 42 40 38 44 45 41 43 40 37 39 45 39 38 40 39 33 33 33 32 35 32 31 32 32 34 31 27 26
39 39 40 41 40 36 34 34 34 37 41 44 42 40 40 39 38 35 33 33 33 33 33 32 35 40 36 33 33 35 33 34 39 36 34 32 31 30 34 36 39 35 36 35
37 33 31 32 30 27 26 26 32 32 31 33 33 32 31 31 31 30 30 30 29 29 27 30 30 30 30 31 30 28 28 31 32 33 31 30 31 31 33 31 30 30 32 32
27 26 22 22 26 28 28 26 27 28 27 26 25 26 26 25 26 27 29 27 27 27 27 28 28 29 26 25 25 25 24 24 29 25 24 24 25 25 27 29 30 31 31 30
Wind_Direction_500mb
248 318 270 218 213 213 215 223 227 227 215 240 222 245 255 289 296 297 271 228 242 237 221 218 223 224 225 222 217 214 218 217 222 228 230 234 237 239 237 236 235 233 232 231
233 211 226 227 228 235 231 226 232 242 249 254 226 276 282 279 285 285 281 274 272 257 231 235 238 232 227 228 222 216 216 221 221 226 230 232 233 237 239 238 237 234 232 231
221 205 241 235 220 215 225 226 233 234 240 247 251 250 250 266 272 274 277 270 267 246 242 248 244 248 243 235 222 218 221 219 223 227 234 233 230 233 237 238 237 236 234 233
243 158 233 251 206 215 226 228 226 245 257 261 256 254 254 257 261 265 262 260 262 262 260 256 251 242 242 226 233 224 222 223 226 231 232 225 229 235 236 234 234 235 233 232
235 217 275 179 146 207 212 226 229 240 251 248 258 257 251 254 253 253 256 257 261 263 265 259 252 250 234 224 224 218 224 229 232 231 229 227 235 240 238 233 234 234 233 233
214 238 223 298 195 3 89 241 229 223 255 277 291 258 249 251 248 258 262 263 261 262 258 255 257 247 232 221 216 225 224 225 227 231 233 237 240 240 238 239 238 230 231 234
227 246 241 257 91 95 192 84 32 323 309 304 284 286 300 301 291 289 283 273 265 257 251 246 243 236 222 217 224 224 220 220 225 229 235 239 240 241 239 239 227 232 230 235
232 239 236 269 314 234 11 331 331 331 334 324 309 299 291 290 286 279 274 277 277 258 243 235 233 230 224 225 220 217 213 217 224 231 227 224 233 236 234 229 232 231 234 234
232 227 257 259 284 307 312 307 312 317 318 319 314 308 299 293 287 279 271 267 263 246 229 222 223 208 205 205 202 206 208 213 214 219 223 218 227 226 225 230 227 232 229 232
264 254 270 276 273 278 290 297 299 296 302 306 310 311 299 284 274 264 260 245 195 176 182 165 156 156 168 173 181 188 197 204 209 215 219 222 222 225 222 226 230 230 234 234
250 253 262 258 269 274 281 287 291 294 299 303 308 303 294 256 230 220 198 131 120 121 118 110 126 143 154 162 163 164 185 197 205 216 228 226 227 227 231 232 231 236 235 238
245 248 242 247 248 282 284 288 293 294 292 291 278 260 242 208 188 169 159 138 129 119 101 81 93 112 132 151 164 175 188 208 212 217 230 238 239 248 243 236 240 244 242 243
250 252 270 265 259 273 275 275 281 284 277 270 248 216 185 159 145 129 120 105 94 94 80 71 82 82 92 93 132 159 175 190 209 220 228 234 242 252 259 263 260 254 253 257
253 259 265 254 252 264 262 264 265 269 263 247 220 195 146 129 121 108 100 94 91 85 73 68 66 64 56 51 68 71 61 69 67 59 41 324 271 275 282 289 283 276 271 262
254 255 259 257 261 261 270 261 265 260 235 220 188 157 133 123 106 104 104 97 91 81 73 65 58 46 66 48 56 68 76 67 64 71 66 75 45 15 351 332 317 305 290 276
241 243 248 243 237 241 252 254 273 217 193 174 149 131 122 111 102 94 89 88 82 71 64 65 52 44 45 54 51 66 63 59 51 23 317 303 315 326 334 343 348 348 336 327
225 236 245 235 222 231 236 248 268 167 183 128 111 116 115 102 94 88 82 77 77 68 62 65 62 45 42 42 36 50 60 58 55 55 44 23 7 3 341 1 356 15 88 46
214 226 231 217 162 191 249 182 136 119 84 96 110 101 92 93 86 87 84 77 75 72 66 62 66 56 48 55 39 30 49 54 53 56 57 43 37 32 26 4 321 309 320 329
79 77 93 94 87 99 96 92 85 89 85 96 101 92 88 84 90 87 79 71 62 58 56 63 61 65 56 64 62 50 50 47 49 54 53 52 51 51 37 23 18 8 329 314
70 63 86 84 82 92 88 82 83 80 74 87 94 95 80 76 81 81 77 71 61 55 57 73 51 59 48 56 63 55 56 57 56 53 58 51 46 46 45 37 30 21 49 36
66 71 77 82 81 81 77 78 80 82 75 68 70 78 83 81 78 73 68 62 56 58 63 65 66 56 51 53 52 53 57 60 61 56 59 59 58 57 53 50 42 32 20 360
65 64 66 73 76 78 84 88 88 86 84 81 80 79 71 62 58 66 64 62 59 60 61 64 63 67 62 61 58 56 54 52 57 59 61 60 57 52 51 48 42 30 23 67
56 63 64 67 75 80 83 78 79 85 84 79 67 65 67 65 62 59 55 57 58 61 57 59 60 56 54 53 48 54 53 49 47 47 52 56 57 55 49 48 49 47 39 36
48 53 54 59 68 68 64 62 66 71 71 74 70 77 70 63 64 57 50 59 57 44 47 46 45 52 55 49 46 47 44 50 48 52 53 54 49 46 48 48 39 43 39 22
44 45 49 50 52 51 54 58 61 60 63 61 58 54 52 52 53 43 43 37 33 36 30 29 36 42 45 46 45 44 43 39 44 44 46 50 50 50 54 49 49 53 43 35
27 34 41 49 55 56 56 60 63 59 57 58 56 50 45 40 34 35 26 23 21 25 25 19 23 33 31 35 37 39 36 37 41 34 37 35 38 38 41 45 46 47 47 47
17 25 31 39 46 53 61 66 66 61 55 49 45 38 34 32 24 26 26 20 22 22 22 23 18 24 30 28 22 23 28 26 26 37 29 22 27 33 39 38 39 39 39 40
Wind_Speed_850mb
31 5 12 36 57 59 59 53 47 37 40 34 14 15 14 19 25 22 12 9 15 26 34 41 44 54 65 66 70 71 84 81 95 96 97 101 104 103 98 96 93 89 87 85
28 20 13 20 23 26 44 54 52 51 44 21 22 14 33 36 37 40 45 44 42 32 33 33 39 46 50 64 69 74 82 94 89 89 88 89 95 100 100 100 98 94 95 95
31 21 20 30 40 38 35 34 33 42 32 34 34 31 39 44 43 44 42 44 39 37 37 37 39 43 46 49 53 72 84 84 89 89 87 87 84 88 92 96 94 97 97 99
12 13 30 21 21 40 46 35 39 36 33 30 30 40 46 48 49 51 50 48 46 46 43 41 39 38 37 39 48 62 81 80 86 88 87 73 79 85 85 88 93 95 100 100
21 24 17 10 6 15 23 34 35 29 19 24 37 49 55 53 51 53 56 54 52 52 50 49 46 42 37 43 47 55 73 69 75 80 76 75 82 83 83 82 85 94 96 99
14 30 28 8 32 5 5 17 13 11 17 17 17 19 24 48 52 50 50 51 51 44 40 40 45 43 42 45 49 60 66 65 67 71 76 79 79 79 81 83 83 74 82 99
26 22 18 16 17 4 22 9 12 8 15 19 19 25 45 50 47 40 36 40 40 41 42 44 39 35 40 44 51 52 51 53 61 65 67 70 70 75 78 80 72 79 84 90
26 32 43 14 18 24 23 23 27 26 27 29 33 36 50 51 56 52 45 39 37 33 32 31 39 37 40 45 40 43 45 48 54 58 57 55 68 69 68 68 73 79 79 81
18 22 27 14 25 29 37 39 36 44 44 44 46 42 45 45 41 39 36 31 22 22 21 19 26 26 30 30 35 37 39 43 45 46 49 57 60 55 58 67 69 70 73 77
33 42 43 38 49 44 33 46 44 45 48 46 54 50 40 34 25 19 13 6 4 7 13 13 17 19 21 25 26 26 28 30 32 36 39 43 45 48 52 57 63 69 69 77
38 42 48 50 50 51 48 39 40 43 45 45 47 41 29 17 14 12 7 6 12 12 12 17 19 22 22 25 26 18 20 22 25 26 33 35 42 45 50 56 59 62 69 70
30 32 40 48 45 29 35 38 41 42 42 39 33 20 16 13 17 14 15 16 19 17 15 17 18 16 16 18 19 18 13 12 16 21 24 29 35 40 53 62 59 69 78 75
45 47 36 40 40 45 47 50 47 43 38 35 30 21 19 18 16 22 27 27 27 27 25 17 16 15 11 7 6 7 8 8 5 9 14 20 25 31 37 42 55 67 82 86
46 46 50 57 51 44 41 44 43 44 42 37 32 29 30 30 32 33 34 31 32 32 31 29 27 22 22 15 14 13 11 11 7 7 5 1 7 15 22 34 45 54 57 74
66 62 64 60 53 49 42 37 34 40 34 26 29 31 32 32 33 36 36 34 37 38 38 36 35 35 27 19 17 17 14 11 11 11 10 11 12 16 18 29 36 41 53 65
47 59 58 52 51 47 44 37 36 35 25 29 33 43 42 41 42 41 40 39 41 42 39 40 38 33 33 33 23 24 24 23 18 8 7 8 13 19 25 15 18 25 25 33
43 41 34 33 39 38 33 38 30 36 27 42 46 50 61 56 45 45 44 44 48 46 46 45 41 32 29 27 29 27 31 31 27 24 19 12 8 10 13 19 15 10 16 19
38 28 21 19 17 21 13 24 39 34 27 45 48 47 42 46 43 46 43 38 42 43 47 46 41 35 33 28 23 24 34 40 39 36 26 21 16 18 15 13 10 8 9 10
44 42 56 55 50 49 56 56 56 58 38 47 57 59 55 51 47 44 47 53 51 49 44 44 36 42 39 29 27 23 26 31 35 35 34 36 35 36 35 30 25 18 12 14
89 79 95 78 81 77 79 71 68 65 53 58 59 63 62 50 45 52 62 65 53 48 47 53 44 41 32 31 35 36 37 34 29 29 30 30 29 33 34 32 30 25 16 6
85 91 86 78 76 82 79 74 69 70 63 66 68 70 70 59 59 58 63 67 59 55 59 61 50 43 38 35 39 42 41 39 37 34 39 41 37 38 38 32 27 26 16 11
79 75 71 65 65 65 59 60 65 63 60 57 55 52 51 59 59 67 62 56 53 58 54 54 50 45 41 41 42 43 40 42 41 42 42 41 41 41 40 41 41 34 18 1
60 60 57 57 61 62 60 56 58 61 58 59 55 53 60 54 48 50 54 53 49 45 43 46 39 40 44 45 40 38 38 37 37 44 43 38 36 35 37 37 36 35 40 40
50 46 44 43 44 49 50 43 46 49 50 52 49 43 43 39 42 40 38 44 45 41 43 40 37 39 45 39 38 40 39 33 33 33 32 35 32 31 32 32 34 31 27 26
39 39 40 41 40 36 34 34 34 37 41 44 42 40 40 39 38 35 33 33 33 33 33 32 35 40 36 33 33 35 33 34 39 36 34 32 31 30 34 36 39 35 36 35
37 33 31 32 30 27 26 26 32 32 31 33 33 32 31 31 31 30 30 30 29 29 27 30 30 30 30 31 30 28 28 31 32 33 31 30 31 31 33 31 30 30 32 32
27 26 22 22 26 28 28 26 27 28 27 26 25 26 26 25 26 27 29 27 27 27 27 28 28 29 26 25 25 25 24 24 29 25 24 24 25 25 27 29 30 31 31 30
Wind_Direction_850mb
248 318 270 218 213 213 215 223 227 227 215 240 222 245 255 289 296 297 271 228 242 237 221 218 223 224 225 222 217 214 218 217 222 228 230 234 237 239 237 236 235 233 232 231
233 211 226 227 228 235 231 226 232 242 249 254 226 276 282 279 285 285 281 274 272 257 231 235 238 232 227 228 222 216 216 221 221 226 230 232 233 237 239 238 237 234 232 231
221 205 241 235 220 215 225 226 233 234 240 247 251 250 250 266 272 274 277 270 267 246 242 248 244 248 243 235 222 218 221 219 223 227 234 233 230 233 237 238 237 236 234 233
243 158 233 251 206 215 226 228 226 245 257 261 256 254 254 257 261 265 262 260 262 262 260 256 251 242 242 226 233 224 222 223 226 231 232 225 229 235 236 234 234 235 233 232
235 217 275 179 146 207 212 226 229 240 251 248 258 257 251 254 253 253 256 257 261 263 265 259 252 250 234 224 224 218 224 229 232 231 229 227 235 240 238 233 234 234 233 233
214 238 223 298 195 3 89 241 229 223 255 277 291 258 249 251 248 258 262 263 261 262 258 255 257 247 232 221 216 225 224 225 227 231 233 237 240 240 238 239 238 230 231 234
227 246 241 257 91 95 192 84 32 323 309 304 284 286 300 301 291 289 283 273 265 257 251 246 243 236 222 217 224 224 220 220 225 229 235 239 240 241 239 239 227 232 230 235
232 239 236 269 314 234 11 331 331 331 334 324 309 299 291 290 286 279 274 277 277 258 243 235 233 230 224 225 220 217 213 217 224 231 227 224 233 236 234 229 232 231 234 234
232 227 257 259 284 307 312 307 312 317 318 319 314 308 299 293 287 279 271 267 263 246 229 222 223 208 205 205 202 206 208 213 214 219 223 218 227 226 225 230 227 232 229 232
264 254 270 276 273 278 290 297 299 296 302 306 310 311 299 284 274 264 260 245 195 176 182 165 156 156 168 173 181 188 197 204 209 215 219 222 222 225 222 226 230 230 234 234
250 253 262 258 269 274 281 287 291 294 299 303 308 303 294 256 230 220 198 131 120 121 118 110 126 143 154 162 163 164 185 197 205 216 228 226 227 227 231 232 231 236 235 238
245 248 242 247 248 282 284 288 293 294 292 291 278 260 242 208 188 169 159 138 129 119 101 81 93 112 132 151 164 175 188 208 212 217 230 238 239 248 243 236 240 244 242 243
250 252 270 265 259 273 275 275 281 284 277 270 248 216 185 159 145 129 120 105 94 94 80 71 82 82 92 93 132 159 175 190 209 220 228 234 242 252 259 263 260 254 253 257
253 259 265 254 252 264 262 264 265 269 263 247 220 195 146 129 121 108 100 94 91 85 73 68 66 64 56 51 68 71 61 69 67 59 41 324 271 275 282 289 283 276 271 262
254 255 259 257 261 261 270 261 265 260 235 220 188 157 133 123 106 104 104 97 91 81 73 65 58 46 66 48 56 68 76 67 64 71 66 75 45 15 351 332 317 305 290 276
241 243 248 243 237 241 252 254 273 217 193 174 149 131 122 111 102 94 89 88 82 71 64 65 52 44 45 54 51 66 63 59 51 23 317 303 315 326 334 343 348 348 336 327
225 236 245 235 222 231 236 248 268 167 183 128 111 116 115 102 94 88 82 77 77 68 62 65 62 45 42 42 36 50 60 58 55 55 44 23 7 3 341 1 356 15 88 46
214 226 231 217 162 191 249 182 136 119 84 96 110 101 92 93 86 87 84 77 75 72 66 62 66 56 48 55 39 30 49 54 53 56 57 43 37 32 26 4 321 309 320 329
79 77 93 94 87 99 96 92 85 89 85 96 101 92 88 84 90 87 79 71 62 58 56 63 61 65 56 64 62 50 50 47 49 54 53 52 51 51 37 23 18 8 329 314
70 63 86 84 82 92 88 82 83 80 74 87 94 95 80 76 81 81 77 71 61 55 57 73 51 59 48 56 63 55 56 57 56 53 58 51 46 46 45 37 30 21 49 36
66 71 77 82 81 81 77 78 80 82 75 68 70 78 83 81 78 73 68 62 56 58 63 65 66 56 51 53 52 53 57 60 61 56 59 59 58 57 53 50 42 32 20 360
65 64 66 73 76 78 84 88 88 86 84 81 80 79 71 62 58 66 64 62 59 60 61 64 63 67 62 61 58 56 54 52 57 59 61 60 57 52 51 48 42 30 23 67
56 63 64 67 75 80 83 78 79 85 84 79 67 65 67 65 62 59 55 57 58 61 57 59 60 56 54 53 48 54 53 49 47 47 52 56 57 55 49 48 49 47 39 36
48 53 54 59 68 68 64 62 66 71 71 74 70 77 70 63 64 57 50 59 57 44 47 46 45 52 55 49 46 47 44 50 48 52 53 54 49 46 48 48 39 43 39 22
44 45 49 50 52 51 54 58 61 60 63 61 58 54 52 52 53 43 43 37 33 36 30 29 36 42 45 46 45 44 43 39 44 44 46 50 50 50 54 49 49 53 43 35
27 34 41 49 55 56 56 60 63 59 57 58 56 50 45 40 34 35 26 23 21 25 25 19 23 33 31 35 37 39 36 37 41 34 37 35 38 38 41 45 46 47 47 47
17 25 31 39 46 53 61 66 66 61 55 49 45 38 34 32 24 26 26 20 22 22 22 23 18 24 30 28 22 23 28 26 26 37 29 22 27 33 39 38 39 39 39 40